Date String (YYYY-MM-DD hh:mm:ss) UTC,Instrument flags,Ambient pressure (hPa),Sample flow (lpm),Bypass flow (lpm),Sample temperature (°C),Ambient temperature (°C),ASC tube jacket temperature (°C),LED temperature (°C),Box temperature (°C),Sample RH (%),Span deviation,Mass concentration (μg/m³),Mass concentration (μg/m³),Mass concentration (μg/m³)
DateTimeUTC,F1_M11,P_M11,Q1_M11,Q2_M11,T1_M11,T2_M11,T3_M11,T4_M11,T5_M11,U1_M11,ZSPAN_M11,X0_M11,X2_M11,X1_M11
2023-05-16 20:00:00,,0832.9,5.02,0.00,29.6,28.3,00.0,37.8,31.3,19.5,0000.0,0011.15,0004.85,0003.58
2023-05-16 20:01:00,,0833.0,5.00,0.00,29.6,28.3,00.0,37.8,31.3,19.2,0000.0,0010.96,0004.86,0003.58
2023-05-16 20:02:00,,0833.0,4.99,0.00,29.6,27.6,00.0,37.8,31.3,18.2,0000.0,0010.69,0004.92,0003.59
2023-05-16 20:03:00,,0832.9,5.00,0.00,29.6,26.2,00.0,37.7,31.1,18.0,0000.0,0010.79,0004.94,0003.58
2023-05-16 20:04:00,,0833.0,5.01,0.00,29.6,26.1,00.0,37.7,31.0,18.7,0000.0,0011.00,0004.97,0003.59
2023-05-16 20:05:00,,0833.0,5.01,0.00,29.5,26.3,00.0,37.7,30.9,18.5,0000.0,0011.11,0004.91,0003.58
2023-05-16 20:06:00,,0832.9,5.00,0.00,29.5,26.5,00.0,37.7,30.9,19.0,0000.0,0011.16,0004.92,0003.59
2023-05-16 20:07:00,,0832.9,5.00,0.00,29.5,26.8,00.0,37.7,31.0,19.3,0000.0,0011.00,0004.90,0003.59
2023-05-16 20:08:00,,0833.0,5.00,0.00,29.5,27.1,00.0,37.7,31.0,19.1,0000.0,0011.00,0004.86,0003.59
2023-05-16 20:09:00,,0833.0,5.00,0.00,29.5,27.4,00.0,37.7,31.1,20.0,0000.0,0011.46,0004.80,0003.60
2023-05-16 20:10:00,,0833.1,4.99,0.00,29.5,27.6,00.0,37.8,31.1,21.0,0000.0,0012.77,0004.77,0003.59
2023-05-16 20:11:00,,0833.2,5.01,0.00,29.5,27.8,00.0,37.8,31.2,19.2,0000.0,0012.94,0004.75,0003.60
2023-05-16 20:12:00,,0833.2,5.01,0.00,29.5,27.9,00.0,37.8,31.2,19.4,0000.0,0013.15,0004.76,0003.59
2023-05-16 20:13:00,,0833.3,4.98,0.00,29.6,28.1,00.0,37.8,31.3,18.5,0000.0,0013.29,0004.77,0003.59
2023-05-16 20:14:00,,0833.1,5.01,0.00,29.6,28.2,00.0,37.8,31.3,18.7,0000.0,0013.29,0004.71,0003.59
2023-05-16 20:15:00,,0832.9,5.01,0.00,29.6,28.3,00.0,37.8,31.3,18.2,0000.0,0013.13,0004.69,0003.59
2023-05-16 20:16:00,,0833.1,4.99,0.00,29.6,28.3,00.0,37.9,31.4,17.1,0000.0,0012.58,0004.72,0003.59
2023-05-16 20:17:00,,0833.0,5.00,0.00,29.7,27.4,00.0,37.8,31.2,17.1,0000.0,0011.94,0004.70,0003.59
2023-05-16 20:18:00,,0832.9,5.00,0.00,29.6,26.0,00.0,37.8,31.0,17.3,0000.0,0011.99,0004.71,0003.60
2023-05-16 20:19:00,,0833.0,5.00,0.00,29.5,25.9,00.0,37.7,30.9,18.3,0000.0,0011.83,0004.78,0003.61
2023-05-16 20:20:00,,0832.8,5.02,0.00,29.5,26.1,00.0,37.7,30.8,19.0,0000.0,0011.45,0004.83,0003.61
2023-05-16 20:21:00,,0832.9,5.00,0.00,29.4,26.4,00.0,37.7,30.9,19.1,0000.0,0010.09,0004.87,0003.62
2023-05-16 20:22:00,,0832.9,5.00,0.00,29.4,26.8,00.0,37.7,30.9,19.6,0000.0,0010.20,0004.92,0003.64
2023-05-16 20:23:00,,0833.0,5.00,0.00,29.4,27.1,00.0,37.7,31.0,19.0,0000.0,0010.66,0004.95,0003.64
2023-05-16 20:24:00,,0832.9,5.00,0.00,29.4,27.3,00.0,37.7,31.0,18.6,0000.0,0010.93,0004.99,0003.65
2023-05-16 20:25:00,,0832.9,4.99,0.00,29.4,27.5,00.0,37.7,31.1,19.5,0000.0,0010.97,0005.01,0003.65
2023-05-16 20:26:00,,0833.4,5.00,0.00,29.5,27.7,00.0,37.8,31.1,19.8,0000.0,0011.20,0005.05,0003.66
2023-05-16 20:27:00,,0833.3,5.01,0.00,29.5,27.9,00.0,37.8,31.2,19.6,0000.0,0011.24,0005.06,0003.66
2023-05-16 20:28:00,,0833.1,5.01,0.00,29.5,28.0,00.0,37.8,31.2,19.0,0000.0,0011.43,0005.13,0003.66
2023-05-16 20:29:00,,0833.4,5.00,0.00,29.6,28.1,00.0,37.8,31.3,19.0,0000.0,0011.80,0005.18,0003.65
2023-05-16 20:30:00,,0833.2,4.99,0.00,29.6,28.2,00.0,37.8,31.3,19.0,0000.0,0011.80,0005.13,0003.65
2023-05-16 20:31:00,,0833.1,5.00,0.00,29.6,28.3,00.0,37.8,31.3,18.9,0000.0,0011.90,0005.09,0003.64
2023-05-16 20:32:00,,0833.3,4.99,0.00,29.6,27.2,00.0,37.8,31.2,19.2,0000.0,0012.10,0005.11,0003.64
2023-05-16 20:33:00,,0832.9,5.01,0.00,29.6,25.9,00.0,37.7,31.0,19.2,0000.0,0011.88,0005.10,0003.64
2023-05-16 20:34:00,,0833.0,5.00,0.00,29.5,25.9,00.0,37.7,30.9,19.7,0000.0,0011.21,0005.05,0003.64
2023-05-16 20:35:00,,0833.0,5.01,0.00,29.5,26.1,00.0,37.7,30.9,19.5,0000.0,0011.31,0004.98,0003.64
2023-05-16 20:36:00,,0832.9,4.99,0.00,29.4,26.4,00.0,37.7,30.9,19.5,0000.0,0011.42,0005.01,0003.66
2023-05-16 20:37:00,,0833.0,5.00,0.00,29.4,26.7,00.0,37.7,30.9,21.2,0000.0,0011.93,0005.03,0003.67
2023-05-16 20:38:00,,0833.1,5.01,0.00,29.4,27.0,00.0,37.7,31.0,21.9,0000.0,0012.06,0005.07,0003.67
2023-05-16 20:39:00,,0833.4,5.00,0.00,29.4,27.3,00.0,37.7,31.1,20.5,0000.0,0012.56,0005.02,0003.68
2023-05-16 20:40:00,,0833.4,4.99,0.00,29.4,27.5,00.0,37.7,31.1,20.5,0000.0,0012.25,0005.01,0003.70
2023-05-16 20:41:00,,0833.0,5.00,0.00,29.5,27.7,00.0,37.7,31.1,21.1,0000.0,0012.04,0005.01,0003.71
2023-05-16 20:42:00,,0832.8,5.00,0.00,29.5,27.9,00.0,37.8,31.2,18.8,0000.0,0011.86,0005.02,0003.73
2023-05-16 20:43:00,,0832.8,5.00,0.00,29.5,28.0,00.0,37.8,31.2,18.2,0000.0,0011.78,0004.97,0003.73
2023-05-16 20:44:00,,0832.8,5.01,0.00,29.5,28.1,00.0,37.8,31.3,18.2,0000.0,0012.32,0004.97,0003.73
2023-05-16 20:45:00,,0832.8,4.99,0.00,29.6,28.2,00.0,37.8,31.3,18.5,0000.0,0012.36,0004.99,0003.73
2023-05-16 20:46:00,,0832.8,5.01,0.00,29.6,28.3,00.0,37.8,31.3,18.3,0000.0,0011.90,0005.03,0003.73
2023-05-16 20:47:00,,0832.8,5.00,0.00,29.6,28.0,00.0,37.8,31.3,19.3,0000.0,0011.48,0004.97,0003.72
2023-05-16 20:48:00,,0832.7,5.00,0.00,29.6,26.3,00.0,37.8,31.1,19.4,0000.0,0010.85,0004.90,0003.73
2023-05-16 20:49:00,,0832.7,5.00,0.00,29.6,25.8,00.0,37.7,31.0,19.5,0000.0,0010.77,0004.90,0003.74
2023-05-16 20:50:00,,0832.8,5.01,0.00,29.5,26.0,00.0,37.7,30.9,19.2,0000.0,0010.11,0004.89,0003.75
2023-05-16 20:51:00,,0832.9,4.99,0.00,29.4,26.3,00.0,37.7,30.9,18.7,0000.0,0010.30,0004.86,0003.74
2023-05-16 20:52:00,,0832.7,5.00,0.00,29.4,26.6,00.0,37.7,30.9,18.9,0000.0,0010.49,0004.84,0003.72
2023-05-16 20:53:00,,0832.8,5.00,0.00,29.4,26.9,00.0,37.7,31.0,18.4,0000.0,0010.64,0004.84,0003.72
2023-05-16 20:54:00,,0832.8,5.00,0.00,29.4,27.2,00.0,37.7,31.0,18.4,0000.0,0010.56,0004.88,0003.72
2023-05-16 20:55:00,,0832.7,5.00,0.00,29.4,27.4,00.0,37.7,31.1,18.8,0000.0,0009.82,0004.83,0003.72
2023-05-16 20:56:00,,0832.7,5.00,0.00,29.5,27.6,00.0,37.7,31.1,18.8,0000.0,0010.04,0004.80,0003.72
2023-05-16 20:57:00,,0832.7,5.01,0.00,29.5,27.8,00.0,37.7,31.1,18.0,0000.0,0010.77,0004.80,0003.72
2023-05-16 20:58:00,,0832.7,4.98,0.00,29.5,27.9,00.0,37.8,31.2,18.3,0000.0,0011.41,0004.88,0003.71
2023-05-16 20:59:00,,0832.7,5.00,0.00,29.5,28.1,00.0,37.8,31.2,19.8,0000.0,0011.61,0004.92,0003.70
